Location: Bílinka
(49.3579°N, 14.3767°E)
Time: 00:31:48
(UTC+00:00)

Cosmos 1892 - Pass Details

Date: 28 January 2023
Orbit: 485 x 506 km, 82.5° (Epoch: 31 March)

Event Time Altitude Azimuth Distance (km) Brightness Sun altitude
Rises 18:22:53 0° 198° (SSW) 2,559 6.5 -24.6°
Reaches altitude 10° 18:25:00 10° 203° (SSW) 1,687 5.5 -24.9°
Enters shadow 18:27:36 40° 228° (SW) 745 3.7 -25.3°
